{"data":{"norad_id":38867,"intl_designator":"2012-057A","name":"INTELSAT 23 (IS-23)","alt_names":[],"object_type":"PAYLOAD","status":"ACTIVE","operator":null,"country":"ITSO","launch_date":"2012-10-14","launch_site_code":"TYMSC","launch_vehicle":null,"mission":null,"orbit_class":"UNKNOWN","rcs_meters":113.2145,"size_class":null,"mass_kg":null,"dimensions":null,"purposes":["comms"],"wikipedia_slug":null,"has_3d_model":false,"image_url":null,"decayed_at":null,"tle_current":{"epoch":"2026-09-20T05:09:47.816064Z","epoch_age_seconds":39028,"freshness":"FRESH","line1":"1 38867U 12057A   26263.21513676 -.00000289  00000+0  00000+0 0  9995","line2":"2 38867   0.0237 260.7453 0001922 347.3842 135.4083  1.00267941 50906","mean_motion":1.00267941,"eccentricity":0.0001922,"inclination_deg":0.0237,"raan_deg":260.7453,"arg_perigee_deg":347.3842,"mean_anomaly_deg":135.4083,"bstar":0,"rev_number":5090,"period_min":1436.1519600767,"perigee_km":35779.568339752,"apogee_km":35795.776876966,"semimajor_km":42165.809608359,"source":"CELESTRAK","updated_at":"2026-09-20T09:00:35.520864Z"}}}